Flag for Latvia Weather past 2 weeks in Jelgava, Latvia

Now
63 °F

Passing clouds.


Feels Like: 63 °F
Forecast: 52 / 70 °F
Wind: 3 mph from West

Location: Riga Airport

Current Time: Jun 30, 2015 at 8:42:10 PM

Latest Report: Jun 30, 2015 at 7:50 PM


Visibility: N/A

Pressure: 30.04 "Hg

Humidity: 94%

Dew point: 61 °F

Location of JelgavaLocation

Historic Weather in Jelgava — Graph

°F

Jelgava temperature yesterday

Maximum temperature yesterday: 75 °F (at 2:50 PM)
Minimum temperature yesterday: 45 °F (at 3:50 AM)
Average temperature yesterday: 62 °F

Past Weeks' High & Low Weather Summary

 TemperatureHumidityPressure
High75 °F (Jun 29, 2:50 PM)100% (Jun 16, 1:50 AM)30.09 "Hg (Jun 16, 1:50 AM)
Low39 °F (Jun 16, 2:50 AM)34% (Jun 16, 2:50 PM)29.68 "Hg (Jun 23, 1:20 PM)
Average58 °F78%29.91 "Hg
* Reported Jun 15 7:20 PM — Jun 30 7:20 PM, Jelgava, Weather by CustomWeather, © 2015

Note: Actual official high and low records may vary slightly from our data, if they occured in-between our weather recording intervals... More about our weather records

Advertising

Jelgava weather history for previous 24 hours

 ConditionsComfort  
Time TempWeatherWind HumidityBarometerVisibility
7:20 PM
Tue, Jun 30
64 °FScattered clouds.2 mph88%30.04 "HgN/A
6:50 PM64 °FPassing clouds.3 mph88%30.04 "HgN/A
5:50 PM64 °FPartly sunny.3 mph88%30.04 "HgN/A
5:20 PM63 °FSprinkles. Broken clouds.5 mph88%30.04 "Hg6 mi
4:50 PM70 °FScattered clouds.9 mph64%30.04 "HgN/A
3:50 PM72 °FScattered clouds.7 mph57%30.01 "HgN/A
3:20 PM72 °FScattered clouds.6 mph57%30.04 "HgN/A
2:50 PM72 °FScattered clouds.5 mph57%30.04 "HgN/A
2:20 PM72 °FScattered clouds.3 mph61%30.04 "HgN/A
1:50 PM70 °FScattered clouds.5 mph64%30.04 "HgN/A
1:20 PM68 °FPartly sunny.5 mph69%30.04 "HgN/A
12:50 PM68 °FPartly sunny.5 mph64%30.04 "HgN/A
12:20 PM70 °FBroken clouds.5 mph60%30.04 "HgN/A
11:50 AM70 °FBroken clouds.6 mph60%30.04 "HgN/A
11:20 AM68 °FScattered clouds.5 mph69%30.04 "HgN/A
10:50 AM68 °FPartly sunny.6 mph69%30.04 "HgN/A
10:20 AM66 °FScattered clouds.6 mph68%30.04 "HgN/A
9:50 AM66 °FScattered clouds.6 mph68%30.04 "HgN/A
9:20 AM64 °FPassing clouds.7 mph73%30.04 "HgN/A
8:50 AM63 °FPassing clouds.3 mph77%30.04 "HgN/A
8:20 AM61 °FPassing clouds.3 mph83%30.04 "HgN/A
7:50 AM59 °FPassing clouds.5 mph88%30.04 "HgN/A
7:20 AM57 °FSunny.5 mph94%30.04 "Hg10 mi
6:50 AM55 °FSunny.2 mph94%30.04 "Hg10 mi
6:20 AM54 °FPassing clouds.3 mph100%30.04 "HgN/A
5:50 AM54 °FSunny.3 mph100%30.04 "Hg10 mi
5:20 AM54 °FClear.2 mph94%30.04 "Hg10 mi
4:50 AM54 °FClear.2 mph100%30.04 "Hg10 mi
4:20 AM55 °FLight fog.2 mph94%30.04 "HgN/A
3:50 AM55 °FLight fog.2 mph94%30.04 "HgN/A
3:20 AM54 °FLight fog.3 mph100%30.07 "HgN/A
2:50 AM54 °FCool.2 mph100%30.04 "HgN/A
2:20 AM55 °FCool.2 mph94%30.04 "HgN/A
1:50 AM55 °FClear.2 mph100%30.04 "Hg10 mi
1:20 AM57 °FClear.2 mph94%30.04 "Hg10 mi
12:20 AM59 °FClear.2 mph94%30.04 "Hg10 mi
11:50 PM
Mon, Jun 29
59 °FPassing clouds.3 mph94%30.04 "HgN/A
11:20 PM61 °FPassing clouds.3 mph88%30.04 "HgN/A
10:50 PM63 °FPassing clouds.5 mph83%30.04 "HgN/A
10:20 PM63 °FPassing clouds.5 mph77%30.04 "HgN/A
9:50 PM66 °FPassing clouds.5 mph64%30.01 "HgN/A
9:20 PM68 °FPassing clouds.6 mph60%30.01 "HgN/A
8:50 PM70 °FPassing clouds.5 mph57%30.01 "HgN/A
8:20 PM70 °FPassing clouds.3 mph57%30.01 "HgN/A
Weather by CustomWeather, © 2015

See weather overviewHow to use our weather pages